Probability
0 0 0 0 0 0 0 0 0 0 0 0 0 0 0 0 0 0 0 0 0 0 0 0 0 0 0 0 0 0 0 0 0 0 0 0 0 0
0 0 0 0 0 0 0 0 0 0 0 0 0 0 0 0 0 0 0 0 0 0 0 0 0 0 0 0 0 0 0 0 0 0 0 0 0 0
0 0 0 0 0 0 0 0 0 0 0 0 0 0 0 0 0 0 0 0 0 0 0 0 0 0 0 0 0 0 0 0 0 0 0 0 0 0
0 0 0 0 0 0 0 0 0 0 0 0 0 0 0 0 0 0 0 0 0 0 0 0 0 0 0 0 0 0 0 0 0 0 0 0 0 0
0 0 0 0 0 0 0 0 0 0 0 0 0 0 0 0 0 0 0 0 0 0 0 0 0 0 0 0 0 0 0 0 0 0 0 0 0 0
0 0 0 0 0 0 0 0 0 0 0 0 0 0 0 0 0 0 0 0 0 0 0 0 0 0 0 0 0 0 0 0 0 0 0 0 0 0
0 0 0 0 0 0 0 0 0 0 0 0 0 0 0 0 0 0 0 0 0 0 0 0 0 0 0 0 0 0 0 0 0 0 0 0 0 0
0 0 0 0 0 0 0 0 0 0 0 0 0 0 0 0 0 0 0 0 0 0 0 0 0 0 0 0 0 0 0 0 0 0 0 0 0 0
0 0 0 0 0 0 0 0 0 0 0 0 0 0 0 0 0 0 0 0 0 0 0 0 0 0 0 0 0 0 0 0 0 0 0 0 0 0
0 0 0 0 0 0 0 0 0 0 0 0 0 0 0 0 0 0 0 0 0 0 0 0 0 0 0 0 0 0 0 0 0 0 0 0 0 0
0 0 0 0 0 0 0 0 0 0 0 0 0 0 0 0 0 0 0 0 0 0 0 0 0 0 0 0 0 0 0 0 0 0 0 0 0 0
0 0 0 0 0 0 0 0 0 0 0 0 0 0 0 0 0 0 0 0 0 0 0 0 0 0 0 0 0 0 0 0 0 0 0 0 0 0
0 0 0 0 0 0 0 0 0 0 0 0 0 0 0 0 0 0 0 0 0 0 0 0 0 0 0 0 0 0 0 0 0 0 0 0 0 0
0 0 0 0 0 0 0 0 0 0 0 0 0 0 0 0 0 0 0 0 0 0 0 0 0 0 0 0 0 0 0 0 0 0 0 0 0 0
0 0 0 0 0 0 0 0 0 0 0 0 0 0 0 0 0 0 0 0 0 0 0 0 0 0 0 0 0 0 0 0 0 0 0 0 0 0
0 0 0 0 0 0 0 0 0 0 0 0 0 0 0 0 0 0 0 0 0 0 0 0 0 0 0 0 0 0 0 0 0 0 0 0 0 0
0 0 0 0 0 0 0 0 0 0 0 0 0 0 0 0 0 0 0 0 0 0 0 0 0 0 0 0 0 0 0 0 0 0 0 0 0 0
0 0 0 0 0 0 0 0 0 0 0 0 0 0 0 0 0 0 0 0 0 0 0 0 0 0 0 0 0 0 0 0 0 0 0 0 0 0
0 0 0 0 0 0 0 0 0 0 0 0 0 0 0 0 0 0 0 0 0 0 0 0 0 0 0 0 0 0 0 0 0 0 0 0 0 0
0 0 0 0 0 0 0 0 0 0 0 0 0 0 0 0 0 0 0 0 0 0 0 0 0 0 0 0 0 0 0 0 0 0 0 0 0 0
0 0 0 0 0 0 0 0 0 0 0 0 0 0 0 0 0 0 0 0 0 0 0 0 0 0 0 0 0 0 0 0 0 0 0 0 0 0
0 0 0 0 0 0 0 0 0 0 0 0 0 0 0 0 0 0 0 0 0 0 0 0 0 0 0 0 0 0 0 0 0 0 0 0 0 0
0 0 0 0 0 0 0 0 0 0 0 0 0 0 0 0 0 0 0 0 0 0 0 0 0 0 0 0 0 0 0 0 0 0 0 0 0 0
Height
5635 5635 5635 5635 5635 5635 5635 5635 5636 5637 5639 5640 5640 5640 5639 5640 5641 5643 5645 5647 5650 5653 5656 5658 5660 5662 5665 5666 5667 5669 5670 5672 5673 5674 5675 5676 5677 5678
5619 5620 5620 5620 5620 5620 5620 5620 5620 5621 5623 5626 5625 5625 5625 5626 5627 5628 5631 5633 5636 5639 5641 5644 5646 5649 5651 5652 5653 5655 5657 5658 5659 5660 5661 5662 5663 5664
5604 5604 5605 5605 5605 5604 5604 5605 5605 5605 5606 5609 5609 5610 5610 5611 5613 5614 5616 5618 5621 5624 5627 5629 5632 5634 5636 5638 5639 5641 5643 5645 5646 5646 5647 5648 5649 5650
5588 5589 5589 5589 5589 5589 5589 5589 5589 5589 5590 5591 5593 5594 5595 5596 5598 5600 5601 5603 5606 5609 5612 5614 5617 5619 5621 5623 5625 5627 5629 5630 5631 5632 5633 5634 5635 5636
5572 5572 5572 5572 5573 5572 5572 5572 5572 5572 5573 5574 5576 5577 5579 5580 5582 5584 5586 5588 5591 5594 5597 5599 5601 5604 5606 5608 5610 5612 5614 5616 5617 5617 5617 5619 5620 5621
5556 5556 5556 5556 5556 5555 5555 5555 5555 5556 5556 5557 5559 5560 5562 5564 5566 5568 5570 5573 5576 5579 5581 5584 5586 5588 5591 5592 5595 5597 5598 5600 5601 5602 5602 5603 5604 5606
5539 5540 5540 5539 5538 5538 5538 5538 5539 5539 5540 5541 5543 5545 5546 5548 5550 5552 5554 5557 5560 5563 5566 5569 5571 5573 5575 5577 5579 5581 5582 5584 5585 5586 5587 5588 5589 5590
5522 5523 5523 5523 5522 5522 5522 5522 5523 5523 5525 5526 5528 5529 5531 5533 5535 5536 5538 5542 5545 5549 5550 5553 5554 5557 5559 5561 5563 5565 5567 5568 5569 5571 5572 5572 5573 5574
5506 5506 5507 5506 5506 5506 5506 5506 5507 5507 5508 5510 5512 5513 5516 5518 5519 5521 5523 5525 5529 5531 5533 5537 5538 5541 5543 5545 5547 5549 5551 5552 5554 5555 5556 5556 5557 5558
5490 5490 5490 5490 5490 5490 5491 5491 5492 5492 5493 5495 5497 5498 5500 5501 5503 5505 5507 5510 5513 5515 5517 5521 5523 5525 5527 5529 5531 5533 5534 5536 5537 5538 5539 5540 5541 5542
5474 5474 5474 5474 5474 5475 5475 5476 5477 5477 5477 5479 5481 5482 5484 5486 5488 5490 5492 5494 5498 5500 5502 5504 5507 5508 5511 5513 5515 5516 5517 5519 5521 5522 5523 5523 5524 5525
5459 5459 5458 5458 5458 5458 5460 5461 5462 5462 5462 5464 5465 5467 5469 5470 5472 5474 5477 5479 5481 5484 5486 5488 5490 5491 5495 5498 5498 5499 5500 5502 5504 5505 5505 5506 5507 5508
5443 5443 5443 5443 5443 5444 5445 5446 5446 5447 5448 5449 5450 5452 5454 5456 5458 5460 5461 5463 5465 5467 5469 5471 5473 5474 5476 5480 5482 5482 5483 5484 5486 5487 5488 5489 5490 5491
5427 5428 5428 5428 5428 5428 5429 5431 5431 5432 5433 5435 5436 5438 5440 5442 5443 5445 5446 5447 5449 5451 5452 5454 5456 5458 5459 5462 5464 5465 5466 5467 5468 5470 5471 5472 5473 5474
5412 5412 5413 5413 5413 5414 5415 5416 5417 5418 5419 5420 5422 5424 5425 5426 5428 5430 5431 5432 5433 5434 5435 5437 5439 5441 5442 5444 5446 5448 5449 5450 5450 5452 5453 5455 5456 5456
5396 5397 5398 5398 5398 5399 5400 5401 5402 5403 5404 5406 5407 5409 5410 5411 5412 5414 5415 5416 5418 5419 5419 5420 5422 5424 5426 5427 5428 5429 5430 5432 5434 5435 5436 5437 5438 5439
5381 5382 5383 5383 5384 5384 5385 5386 5387 5389 5390 5391 5392 5394 5395 5396 5397 5397 5399 5400 5402 5403 5404 5404 5405 5407 5409 5410 5411 5412 5413 5415 5416 5417 5419 5421 5422 5422
5366 5367 5368 5368 5369 5369 5370 5371 5372 5374 5375 5376 5377 5378 5380 5381 5381 5382 5383 5385 5386 5387 5388 5388 5389 5391 5393 5395 5395 5396 5397 5398 5399 5401 5402 5404 5406 5406
5351 5352 5352 5353 5353 5354 5355 5356 5357 5358 5360 5361 5362 5363 5365 5366 5366 5367 5368 5369 5371 5372 5372 5373 5374 5375 5377 5380 5380 5380 5381 5382 5383 5385 5386 5387 5390 5391
5337 5337 5338 5338 5338 5339 5340 5341 5342 5343 5345 5346 5347 5349 5350 5351 5352 5352 5353 5354 5356 5357 5357 5358 5359 5360 5362 5364 5365 5366 5365 5366 5368 5369 5370 5371 5373 5374
5323 5323 5323 5323 5324 5325 5325 5326 5328 5329 5330 5332 5333 5334 5336 5337 5338 5338 5339 5340 5341 5342 5343 5344 5344 5345 5347 5348 5350 5351 5351 5351 5352 5354 5355 5355 5357 5359
5311 5310 5310 5310 5310 5311 5311 5313 5314 5315 5317 5318 5319 5321 5322 5323 5324 5324 5325 5326 5327 5328 5329 5330 5330 5331 5332 5334 5335 5336 5337 5337 5337 5338 5339 5340 5341 5344
5298 5298 5297 5297 5297 5298 5298 5300 5301 5302 5304 5305 5306 5308 5309 5310 5310 5311 5312 5313 5314 5314 5315 5316 5317 5317 5318 5319 5321 5322 5323 5323 5324 5325 5326 5325 5326 5328
Wind_Speed
53 53 53 53 53 53 53 53 52 52 51 50 51 52 52 52 52 51 51 52 52 51 50 51 51 51 50 51 51 50 49 49 49 50 50 49 48 48
54 54 55 55 55 55 55 55 55 54 54 52 52 52 53 53 53 52 51 52 51 51 50 51 51 51 51 51 51 50 50 50 50 51 51 50 49 49
55 55 55 56 56 55 56 57 56 56 56 55 54 53 53 54 53 53 52 52 52 52 52 52 52 52 52 52 53 52 51 52 52 51 51 50 50 50
55 56 56 57 57 57 58 58 58 57 57 56 56 55 54 54 54 53 53 53 53 53 53 53 53 53 53 53 54 54 53 53 53 52 51 51 51 50
57 56 56 57 57 58 58 59 58 58 58 58 56 56 55 55 55 55 54 54 55 55 55 54 54 55 54 53 53 54 53 54 54 53 52 53 53 52
57 56 56 57 57 58 58 58 58 58 57 57 56 55 56 56 56 56 56 55 55 55 55 55 55 55 56 55 55 55 54 54 54 55 54 54 54 54
58 56 56 56 56 56 56 56 57 57 57 56 55 55 55 55 55 56 56 56 55 55 55 55 55 56 57 57 56 55 55 55 55 55 55 55 55 55
57 57 56 55 55 54 54 54 54 55 55 56 55 55 55 54 55 55 55 56 56 56 56 55 56 55 56 57 57 57 57 57 56 56 55 55 55 55
56 56 56 55 54 54 54 53 53 53 54 55 54 54 54 54 54 55 55 55 55 55 56 56 57 57 57 57 57 57 58 58 57 57 56 56 56 56
55 56 55 55 55 55 54 54 54 54 54 54 54 54 53 53 54 54 54 55 55 56 56 56 57 58 57 57 57 58 58 58 58 58 57 56 55 55
55 56 56 56 55 56 55 54 53 53 53 53 54 54 53 53 54 54 54 54 55 55 56 56 56 57 58 58 58 58 59 59 59 59 58 57 56 56
54 55 55 56 55 54 54 54 53 53 53 54 54 54 54 54 53 53 54 54 55 55 56 57 57 58 58 57 58 58 59 59 59 59 58 57 57 57
52 52 53 54 54 53 53 53 52 52 52 52 52 53 52 52 52 52 52 53 54 54 55 56 56 57 58 57 57 58 59 59 59 58 58 58 58 58
52 52 51 52 52 52 53 52 51 51 51 50 51 51 52 52 52 52 52 53 54 54 55 55 56 57 57 57 57 57 58 59 58 58 58 58 58 58
51 51 51 51 50 51 52 51 51 51 51 50 51 51 51 52 53 53 53 54 54 55 56 56 56 56 56 57 57 56 57 57 58 58 58 58 58 58
50 50 50 50 50 50 50 50 51 51 51 50 51 51 51 51 52 53 53 54 54 54 55 55 55 56 55 54 55 55 56 57 57 57 57 56 57 57
49 49 49 49 49 49 49 49 49 49 50 50 50 50 50 51 51 51 52 53 53 54 54 54 54 54 53 53 53 54 55 55 55 55 54 53 54 55
47 48 48 48 48 48 48 48 48 48 48 48 49 48 48 49 49 50 51 51 52 52 52 52 52 52 51 51 51 51 52 53 53 53 53 53 53 53
46 46 47 47 47 47 47 47 47 47 48 48 48 48 47 47 48 48 49 49 49 50 50 49 50 50 49 49 48 49 50 51 52 52 52 52 52 52
43 43 44 45 45 45 45 45 45 46 46 46 46 46 46 46 47 47 48 48 48 48 48 48 49 49 48 48 48 47 49 49 50 50 51 52 52 52
40 40 40 41 42 43 43 43 43 43 44 44 44 44 44 44 44 45 45 45 46 46 46 46 47 47 47 47 47 46 46 47 48 48 49 49 50 50
37 37 38 38 39 41 41 42 42 42 42 42 42 42 42 42 43 43 43 43 44 45 45 45 46 46 46 45 45 45 44 45 46 46 47 47 47 47
36 36 36 36 37 37 38 39 40 40 40 41 41 41 41 41 41 41 41 42 43 43 43 43 43 43 43 43 43 43 43 43 43 44 44 45 44 44
Wind_Direction
266 267 268 269 269 269 269 269 269 268 268 268 268 268 266 265 264 264 263 262 261 260 261 261 261 261 261 262 262 263 263 264 265 265 265 264 264 265
267 268 269 270 270 270 269 270 269 269 269 267 267 267 265 265 264 263 262 261 260 259 260 260 260 260 261 262 262 263 264 264 266 266 264 263 264 265
267 268 269 269 269 269 269 270 270 270 270 268 266 265 264 263 264 263 262 261 259 259 259 260 260 259 259 260 261 263 264 265 266 266 264 263 262 264
267 268 269 269 269 269 269 269 269 270 270 269 266 265 263 262 262 262 262 261 259 259 260 260 260 259 258 259 261 262 263 264 265 265 264 263 264 264
268 268 269 269 270 269 269 268 268 268 268 267 266 264 263 262 262 262 261 260 259 259 260 261 260 258 259 259 259 261 262 264 265 265 264 263 264 264
268 269 269 269 269 269 268 267 267 267 267 266 265 264 263 263 262 262 261 260 259 259 260 261 260 258 258 259 259 260 262 264 265 266 265 264 264 264
268 268 268 268 269 268 268 267 267 266 265 265 264 264 263 263 262 262 261 259 259 259 260 260 260 259 260 260 261 261 262 263 264 265 266 266 264 263
267 267 267 268 268 267 268 267 267 266 265 264 263 263 263 263 263 262 261 260 260 260 260 260 260 260 261 260 261 261 261 261 262 264 265 265 264 263
266 266 266 265 265 266 266 266 266 265 263 262 262 262 262 262 262 261 260 260 260 261 261 261 261 259 261 262 262 262 262 262 262 263 265 264 265 264
267 266 265 265 265 266 265 264 263 263 262 261 261 262 262 262 262 260 260 261 260 260 261 261 261 261 262 262 262 262 263 263 263 264 264 264 264 264
267 266 266 266 266 266 266 264 263 262 261 261 261 261 262 262 262 261 261 261 261 260 260 262 262 261 262 262 262 262 263 264 264 265 265 265 265 265
267 266 267 267 267 267 266 265 263 262 261 260 261 261 262 262 262 262 262 261 260 261 262 261 262 262 262 262 262 262 263 263 264 265 265 266 266 267
267 267 266 267 267 267 266 265 264 263 263 262 262 262 262 262 263 263 262 262 262 262 262 261 262 263 262 261 261 263 263 263 264 264 265 266 267 268
266 266 267 266 266 266 266 266 265 264 263 264 264 263 262 263 263 263 263 263 263 263 263 263 263 263 263 263 263 263 263 264 264 263 264 265 266 268
266 266 267 267 266 266 265 265 265 263 264 264 265 264 264 263 263 264 264 264 264 264 264 264 265 264 265 265 264 263 263 263 264 263 263 264 266 267
267 266 267 267 265 265 264 264 263 263 264 264 264 263 263 263 264 264 264 264 263 264 265 265 265 265 265 265 265 263 262 263 263 263 264 264 265 266
268 267 266 266 266 265 264 264 264 264 264 263 262 263 264 264 264 265 264 264 263 264 264 265 265 265 265 265 264 263 263 264 264 263 264 264 264 265
269 268 266 266 266 265 264 264 264 264 263 263 263 264 265 264 264 264 264 264 264 264 264 264 265 265 265 265 264 264 264 263 263 263 264 265 264 265
270 269 266 266 266 265 264 263 262 263 262 262 263 264 265 265 264 265 265 264 264 264 264 264 264 264 264 264 263 264 264 263 264 264 264 265 264 264
272 270 268 266 265 265 264 263 262 261 261 262 263 263 264 266 266 265 266 265 265 264 264 264 264 264 264 264 263 263 264 265 265 265 265 265 265 264
273 272 270 267 265 264 263 262 261 260 260 261 262 262 263 264 265 266 265 264 264 264 263 264 264 263 263 264 263 263 264 266 266 266 266 266 265 264
274 273 271 269 266 264 263 262 261 260 260 260 261 262 263 263 264 265 264 263 264 264 264 263 263 263 263 263 263 263 264 265 266 267 267 267 266 265
274 273 272 270 268 265 264 262 261 261 261 262 262 262 263 263 263 263 263 264 264 264 264 263 263 264 264 264 263 263 264 265 267 267 267 268 267 266